Location: Saint-Denis
(20.8800°S, 55.4481°E)
Time: 09:09:35
(UTC+04:00)

FENGYUN 1C DEB - Pass Details

Date: 22 February 2024
Orbit: 798 x 864 km, 98.6° (Epoch: 24 April)

Event Time Altitude Azimuth Distance (km) Brightness Sun altitude
Rises 20:43:58 0° 192° (SSW) 3,444 ? -26.0°
Reaches altitude 10° 20:47:12 10° 211° (SSW) 2,490 ? -26.7°
Maximum altitude 20:50:36 17° 250° (WSW) 2,024 ? -27.4°
Drops below altitude 10° 20:53:58 10° 288° (WNW) 2,448 ? -28.1°
Sets 20:57:07 0° 308° (NW) 3,360 ? -28.8°
